sat.trackr.live / text

‹ back to catalog

STARLINK-5149

NORAD 53981 · 2022-125T

PAYLOAD ACTIVE UNKNOWN

§ Identity

Operator
Country
US
Launch date
2022-10-05
Launch site
AFWTR
Launch vehicle
Mass (kg)
RCS (m²)

Purposes: comms

External: N2YO · Heavens-Above · Gunter

§ Orbital elements

Epoch: 2026-05-24T21:56:27.305088Z

Period
95.44 min
Inclination
53.2136°
Eccentricity
0.0001282
Mean motion
15.08833882 rev/d
Perigee alt
538.9 km
Apogee alt
540.6 km
Semi-major
6,917.9 km
B*
-1.5090e-5
RAAN
221.7118°
Arg perigee
90.1219°
Mean anomaly
269.9920°
Rev number
20,111

§ Raw data

STARLINK-51491 53981U 22125T   26144.91420492 -.00000528  00000+0 -15090-4 0  99912 53981  53.2136 221.7118 0001282  90.1219 269.9920 15.08833882201113

JSON: /api/v1/satellites/53981 · /tle

For live sub-satellite position, see the globe view (requires WebGL).

§ Visibility from observer

Set your observer location to see the next 7 days of passes ≥ 10°. The values pass through the URL so the page stays shareable.

No JS? Fill the form by hand. The geolocation button needs JavaScript.